Westfield, MA

8:18 AM EDT on April 29, 2017 (GMT -0400)
Barnes Municipal

Weather History for KBAF - November, 2012

Change the Weather History Date:

Saturday, November 24, 2012

  Actual Average Record
Temperature  
Mean Temperature 39 °F -  
Max Temperature 46 °F 44 °F 66 °F (1999)
Min Temperature 32 °F 27 °F 8 °F (2000)
Degree Days  
Heating Degree Days 26    
Moisture  
Dew Point 23 °F    
Average Humidity 52    
Maximum Humidity 90    
Minimum Humidity 35    
Precipitation  
Precipitation 0.00 in - - ()
Sea Level Pressure  
Sea Level Pressure 29.66 in    
Wind  
Wind Speed 13 mph (WNW)    
Max Wind Speed 23 mph    
Max Gust Speed 32 mph    
Visibility 10 miles    
Events Snow    
Averages and records for this station are not official NWS values.
T = Trace of Precipitation, MM = Missing Value Source: NWS Daily Summary

Daily Weather History Graph

Daily Weather History Graph

Search for Another Location

Airport or City:

Trip Planner

Search our weather history database for the weather conditions in past years. The results will help you decide how hot, cold, wet, or windy it might be!

Date:

Astronomy

Nov. 24, 2012 Rise Set
Actual Time 6:52 AM EST 4:22 PM EST
Civil Twilight 6:21 AM EST 4:53 PM EST
Nautical Twilight 5:47 AM EST 5:27 PM EST
Astronomical Twilight 5:13 AM EST 6:01 PM EST
Moon 2:08 PM EST (11/24) 3:03 AM EST (11/24)
Length of Visible Light 10h 31m
Length of Day
9h 30m
Waxing Gibbous, 87% of the Moon is Illuminated
Nov 24
Waxing Gibbous
Nov 28
Full
Dec 6
Last Quarter
Dec 13
New
Dec 20
First Quarter

Hourly Weather History & Observations

Time (EST) Temp. Windchill Dew Point Humidity Pressure Visibility Wind Dir Wind Speed Gust Speed Precip Events Conditions
12:53 AM 46.0 °F 43.1 °F 43.0 °F 89% 29.61 in 6.0 mi South 5.8 mph - 0.00 in   Overcast
1:53 AM 45.0 °F 42.6 °F 42.1 °F 90% 29.61 in 5.0 mi South 4.6 mph - 0.00 in   Overcast
2:39 AM 46.4 °F 39.0 °F 35.6 °F 66% 29.61 in 10.0 mi NNW 19.6 mph 25.3 mph N/A   Overcast
2:53 AM 45.0 °F 37.9 °F 33.1 °F 63% 29.61 in 10.0 mi NNW 16.1 mph 24.2 mph N/A   Overcast
3:53 AM 44.1 °F 38.6 °F 30.9 °F 60% 29.62 in 10.0 mi WNW 10.4 mph - N/A   Overcast
4:53 AM 43.0 °F 36.0 °F 30.0 °F 60% 29.63 in 10.0 mi NW 13.8 mph 19.6 mph N/A   Overcast
5:53 AM 42.1 °F 36.1 °F 24.1 °F 49% 29.65 in 10.0 mi NW 10.4 mph 21.9 mph N/A   Overcast
6:53 AM 41.0 °F 32.5 °F 21.0 °F 45% 29.66 in 10.0 mi NW 17.3 mph 25.3 mph N/A   Overcast
7:53 AM 39.9 °F 32.1 °F 18.0 °F 41% 29.69 in 10.0 mi West 13.8 mph 24.2 mph N/A   Mostly Cloudy
8:53 AM 39.9 °F 32.1 °F 19.0 °F 43% 29.69 in 10.0 mi NW 13.8 mph 28.8 mph N/A   Mostly Cloudy
9:53 AM 43.0 °F 35.1 °F 18.0 °F 37% 29.68 in 10.0 mi NW 17.3 mph 28.8 mph N/A   Scattered Clouds
10:53 AM 42.1 °F 34.9 °F 17.1 °F 37% 29.66 in 10.0 mi WNW 13.8 mph 26.5 mph N/A   Mostly Cloudy
11:53 AM 42.1 °F 33.3 °F 16.0 °F 35% 29.64 in 10.0 mi WNW 19.6 mph 32.2 mph N/A   Overcast
12:53 PM 42.1 °F 32.6 °F 17.1 °F 37% 29.63 in 10.0 mi NW 23.0 mph 28.8 mph N/A   Overcast
1:53 PM 39.0 °F 30.6 °F 24.1 °F 55% 29.64 in 10.0 mi West 15.0 mph 25.3 mph N/A   Mostly Cloudy
2:53 PM 39.9 °F 31.1 °F 18.0 °F 41% 29.64 in 10.0 mi West 17.3 mph 26.5 mph N/A   Scattered Clouds
3:53 PM 39.0 °F 29.3 °F 17.1 °F 41% 29.64 in 10.0 mi WNW 19.6 mph 26.5 mph N/A   Overcast
4:53 PM 37.0 °F 27.4 °F 19.9 °F 50% 29.67 in 10.0 mi WNW 17.3 mph 24.2 mph 0.00 in Snow Light Snow
5:53 PM 35.1 °F 24.1 °F 16.0 °F 46% 29.69 in 10.0 mi WNW 19.6 mph 25.3 mph 0.00 in   Partly Cloudy
6:53 PM 35.1 °F 27.4 °F 19.9 °F 54% 29.70 in 10.0 mi West 10.4 mph 17.3 mph 0.00 in Snow Light Snow
7:53 PM 34.0 °F 25.0 °F 16.0 °F 48% 29.71 in 10.0 mi NW 12.7 mph 23.0 mph 0.00 in   Clear
8:53 PM 32.0 °F 22.5 °F 16.0 °F 52% 29.72 in 10.0 mi WNW 12.7 mph 19.6 mph N/A   Clear
9:53 PM 33.1 °F 24.9 °F 17.1 °F 52% 29.73 in 10.0 mi WNW 10.4 mph 16.1 mph N/A   Scattered Clouds
10:53 PM 33.1 °F 21.2 °F 17.1 °F 52% 29.73 in 10.0 mi WNW 20.7 mph 26.5 mph N/A   Mostly Cloudy
11:53 PM 33.1 °F 21.9 °F 17.1 °F 52% 29.74 in 10.0 mi WNW 18.4 mph 25.3 mph N/A   Mostly Cloudy